Date,TemperatureHighF,TemperatureAvgF,TemperatureLowF,DewpointHighF,DewpointAvgF,DewpointLowF,HumidityHigh,HumidityAvg,HumidityLow,PressureMaxIn,PressureMinIn,WindSpeedMaxMPH,WindSpeedAvgMPH,GustSpeedMaxMPH,PrecipitationSumIn
2013-5-1,86,75,66,64,59,46,79,59,37,29.88,29.78,7,1,12,0.00
2013-5-2,82,74,67,66,62,56,86,67,44,29.83,29.78,9,1,11,0.00
2013-5-3,81,72,63,67,63,60,95,76,55,29.84,29.75,8,1,13,0.00
2013-5-4,86,74,62,66,58,48,88,61,29,29.89,29.81,10,2,15,0.00
2013-5-5,81,72,61,66,59,48,90,65,43,29.93,29.86,8,1,11,0.00
2013-5-6,79,71,64,66,64,61,91,78,56,29.92,29.84,8,2,12,0.00
2013-5-7,78,72,65,67,65,62,90,80,66,29.90,29.84,9,2,16,0.00
2013-5-8,82,72,65,66,64,58,94,76,44,29.88,29.81,8,2,16,0.00
2013-5-9,79,73,67,68,66,64,92,79,62,29.90,29.82,7,2,14,0.00
2013-5-10,81,73,65,68,66,63,92,79,56,29.88,29.78,10,2,16,0.00
2013-5-11,78,72,66,66,63,57,90,74,54,29.89,29.84,13,2,16,0.00
2013-5-12,75,69,62,62,59,57,84,71,56,29.92,29.85,13,3,17,0.00
2013-5-13,83,73,63,62,56,48,85,59,31,29.91,29.69,11,2,13,0.02
2013-5-14,75,70,65,63,58,54,82,66,49,29.83,29.79,13,4,25,0.00
2013-5-15,73,67,62,60,57,53,81,69,54,29.94,29.79,13,3,14,0.02
2013-5-16,75,70,62,62,60,58,85,73,58,30.04,29.93,13,2,16,0.00
2013-5-17,80,71,64,65,62,59,86,74,53,30.09,30.01,9,2,17,0.00
2013-5-18,85,74,64,67,64,60,89,72,48,30.08,29.95,11,2,14,0.00
2013-5-19,86,75,65,67,60,48,91,64,27,29.96,29.82,7,1,12,0.00
2013-5-20,78,73,64,66,62,56,84,69,58,29.86,29.78,10,2,15,0.00
2013-5-21,81,74,68,69,65,61,88,74,60,29.90,29.84,10,2,14,0.00
2013-5-22,88,75,65,67,62,58,86,66,38,29.93,29.87,9,2,16,0.00
2013-5-23,88,76,64,71,65,57,88,71,46,29.93,29.85,13,2,15,0.00
2013-5-24,90,77,67,71,66,63,89,70,45,29.91,29.85,10,2,16,0.00
2013-5-25,82,75,70,70,66,58,85,73,48,29.97,29.88,10,2,14,0.00
2013-5-26,77,72,67,62,60,58,79,66,53,29.98,29.93,10,2,15,0.00
2013-5-27,80,73,65,67,63,59,86,72,57,30.02,29.94,12,3,16,0.00
2013-5-28,82,74,68,67,64,57,90,70,45,30.02,29.97,11,3,21,0.00
2013-5-29,92,78,62,64,52,33,87,46,15,30.00,29.78,7,1,11,0.00
2013-5-30,100,78,70,70,60,34,82,60,11,29.84,29.68,21,4,29,0.00
2013-5-31,84,76,69,68,66,62,87,71,50,29.85,29.78,7,2,11,0.00